Temperature
13 13 13 12 12 12 12 12 11 11 11 11 10 10 10 10 10 10 10 10 9 9 9 9 9 9 9 9 10 9 10 9 9 9 9 9 9 9 9 9 9 9 9
13 12 12 12 12 12 11 11 11 11 11 10 10 10 10 10 10 10 9 9 9 9 9 9 9 9 9 9 9 9 9 9 9 8 9 9 9 9 8 8 8 8 8
12 12 12 12 12 11 11 11 11 11 10 10 10 10 10 10 9 9 9 9 9 9 9 9 9 9 8 8 8 8 8 8 8 8 8 8 8 8 8 8 8 8 8
12 12 12 12 11 11 11 11 11 10 10 10 10 10 10 9 9 9 9 9 9 8 8 8 8 8 8 8 8 8 8 8 8 8 7 8 8 8 8 8 8 8 8
12 12 11 11 11 11 11 11 10 10 10 10 10 10 9 9 9 9 9 9 8 8 8 8 8 8 8 8 8 8 8 7 7 7 7 7 7 7 7 7 7 7 7
12 11 11 11 11 11 11 10 10 10 10 10 10 9 9 9 9 9 9 8 8 8 8 8 8 8 8 8 7 7 7 7 7 7 7 6 7 7 7 7 7 7 7
11 11 11 11 11 11 10 10 10 10 10 9 9 9 9 9 9 9 8 8 8 8 8 8 7 7 7 7 7 7 7 7 7 6 6 6 6 6 6 6 6 6 6
11 11 11 10 10 10 10 10 10 9 9 9 9 9 9 9 8 8 8 8 8 8 7 7 7 7 7 7 7 6 6 6 6 6 6 6 6 6 6 6 6 6 6
10 10 10 10 10 10 10 10 9 9 9 9 9 9 8 8 8 8 8 8 8 7 7 7 7 7 7 7 6 6 6 6 6 6 6 6 6 6 6 6 6 6 6
10 10 10 10 10 10 10 9 9 9 9 9 8 8 8 8 8 8 8 8 7 7 7 7 7 6 6 6 6 6 6 6 6 6 6 5 5 5 6 5 5 5 5
10 9 9 9 9 9 9 9 9 9 9 8 8 8 8 8 8 8 7 7 7 7 7 6 6 6 6 6 6 6 6 6 6 5 5 5 5 5 5 5 5 5 5
9 9 9 9 9 9 9 9 8 8 8 8 8 8 8 7 7 7 7 7 7 7 6 6 6 6 6 6 6 5 5 5 5 5 5 5 5 5 5 5 5 5 5
9 9 9 9 9 9 9 8 8 8 8 7 7 7 7 7 7 7 7 6 6 6 6 6 6 6 5 5 5 5 5 5 5 5 5 5 4 4 4 4 4 5 5
8 8 8 8 8 8 8 8 8 8 8 7 7 7 7 7 6 6 6 6 6 6 6 5 5 5 5 5 5 5 5 5 5 4 4 4 4 4 4 4 4 4 4
8 8 8 8 8 8 8 8 8 7 7 7 7 7 7 6 6 6 6 6 6 5 5 5 5 5 5 4 4 4 4 4 4 4 4 4 4 4 4 4 4 4 4
7 7 7 7 7 7 7 7 7 7 7 7 7 6 6 6 6 6 6 6 5 5 5 5 4 4 4 4 4 4 4 4 4 4 4 4 4 4 4 4 3 3 3
7 7 7 7 7 7 6 7 6 6 6 6 6 6 6 6 6 6 5 5 5 5 5 4 4 4 4 4 4 4 3 3 3 3 3 3 3 3 3 3 3 3 3
6 6 6 6 6 6 6 6 6 6 6 6 6 5 5 5 5 5 5 5 4 4 4 4 4 4 4 4 3 3 3 3 3 3 3 3 3 3 3 3 3 3 3
6 6 6 6 6 6 6 6 6 5 5 5 5 5 5 5 5 5 4 4 4 4 4 4 4 3 3 3 3 3 3 3 3 3 3 3 3 3 3 3 3 3 3
5 5 5 5 5 5 5 5 5 5 5 5 5 5 5 4 4 4 4 4 4 4 4 4 3 3 3 3 3 3 3 3 3 3 3 3 3 3 3 3 2 2 2
4 4 5 5 5 5 5 5 5 5 5 5 5 5 5 4 4 4 4 4 4 4 3 3 3 3 3 3 3 3 3 2 2 2 2 2 2 2 2 2 2 2 2
4 4 4 4 4 4 4 4 4 4 4 4 4 4 4 4 4 4 3 3 3 3 3 3 3 3 3 3 3 3 2 2 2 2 2 2 2 2 2 2 2 2 2
4 3 3 3 3 3 4 4 4 4 4 4 4 4 4 3 3 3 3 3 3 3 3 3 3 3 3 2 2 2 2 2 2 2 2 2 2 2 2 2 2 2 1
3 3 3 3 3 3 3 3 3 3 3 3 3 3 3 3 3 3 3 3 3 3 3 3 3 2 2 2 2 2 2 2 2 2 2 2 2 2 2 1 1 1 1
3 3 2 2 2 2 3 3 2 2 2 2 2 2 2 2 2 2 2 2 2 2 3 3 2 2 2 2 2 2 2 2 2 2 2 2 1 1 1 1 1 1 1
3 2 2 2 2 2 2 2 2 2 2 2 2 2 2 2 2 2 2 2 2 2 2 2 2 2 2 2 2 2 2 2 2 1 1 1 1 1 1 1 0 0 0
Wind_Speed
2 2 2 2 3 3 2 2 2 2 2 2 2 1 1 1 1 1 1 1 1 2 2 2 2 2 2 2 1 2 2 1 0 1 1 1 1 1 1 1 1 2 2
2 3 2 2 3 3 2 2 2 2 1 2 2 1 1 0 1 1 0 1 1 2 2 2 2 2 2 2 1 1 1 1 0 1 1 1 1 1 0 0 0 1 1
2 3 3 2 3 3 3 2 2 2 1 1 2 2 1 1 0 0 0 1 1 1 2 2 2 2 2 2 1 1 1 1 1 0 2 1 1 1 1 1 1 0 1
2 2 3 2 3 3 3 2 2 2 1 1 2 2 2 1 1 0 1 1 1 1 1 2 2 2 2 2 2 1 1 1 1 1 1 1 1 1 1 1 1 1 1
2 2 3 2 2 3 3 2 2 2 2 2 2 1 1 1 0 1 1 1 1 1 1 1 1 1 2 2 2 1 1 1 1 1 1 2 1 1 2 2 1 2 2
2 2 2 3 3 3 3 2 2 2 2 1 2 2 2 1 0 1 2 2 2 1 1 1 1 0 2 3 3 3 2 1 1 1 1 2 2 2 2 2 1 2 2
2 2 2 3 3 3 3 3 2 2 2 2 2 2 2 2 1 1 3 3 2 1 1 2 2 1 2 1 3 3 3 3 2 2 2 2 2 2 2 2 2 2 3
2 2 2 3 3 3 3 3 3 2 2 2 2 2 2 2 2 2 3 3 3 2 2 1 0 0 1 2 2 2 2 2 2 1 1 3 3 3 3 3 3 2 2
2 2 2 3 3 3 3 4 3 2 2 2 3 2 2 2 2 1 2 2 2 2 1 1 0 0 3 3 1 1 1 2 2 3 3 4 5 4 2 1 2 1 2
2 2 2 2 3 4 4 3 3 3 3 3 3 3 3 2 2 1 2 2 2 2 1 1 1 1 3 3 2 1 2 3 2 3 3 5 4 3 3 2 2 2 1
1 1 2 2 3 3 3 3 2 2 3 3 3 2 2 2 2 2 1 1 1 1 1 1 1 1 2 3 3 2 3 3 2 2 2 2 2 2 2 2 2 2 2
1 2 2 2 2 2 3 3 2 2 3 3 3 2 2 2 2 2 2 2 2 1 2 1 1 2 2 2 2 3 3 3 2 2 2 2 1 2 2 2 3 3 3
1 2 2 2 2 2 2 3 2 2 2 3 2 2 2 1 2 2 3 4 3 2 2 2 2 1 2 2 3 3 2 2 2 2 2 3 2 2 2 2 2 3 4
1 2 2 2 1 1 1 2 2 2 2 2 2 2 2 1 1 1 2 2 3 2 2 2 2 2 2 2 2 2 2 2 2 2 3 3 2 2 2 1 2 2 2
1 2 1 1 1 1 1 1 2 2 4 4 3 3 3 3 3 2 2 3 3 2 1 1 1 1 1 2 2 2 2 2 2 2 2 2 2 2 2 2 2 2 2
1 2 1 1 1 1 2 0 0 2 2 3 4 3 2 2 2 2 2 2 2 2 1 1 1 1 2 2 2 2 1 2 2 2 2 2 2 2 2 2 2 2 3
2 1 2 2 2 2 2 3 2 1 1 1 2 2 3 3 2 2 2 2 2 1 1 2 2 2 2 2 2 2 2 2 2 2 2 2 2 2 2 3 3 3 3
2 2 2 2 2 2 3 3 3 3 2 1 2 4 4 3 3 3 3 1 1 2 2 2 2 2 2 2 2 1 2 2 1 2 2 2 2 2 2 3 3 3 3
2 2 1 1 2 2 3 3 3 3 3 2 1 2 3 2 2 3 3 2 2 2 3 3 2 2 2 2 2 2 2 2 2 2 2 2 2 2 2 3 3 4 4
2 3 2 1 2 2 2 2 2 3 3 3 3 2 2 2 1 2 2 2 2 2 3 3 2 2 2 2 2 2 2 2 2 2 2 2 2 2 2 3 3 3 3
1 2 3 2 2 2 2 2 2 2 2 2 3 3 4 3 3 3 3 3 2 2 2 2 2 2 2 2 2 2 3 2 2 2 2 2 2 2 2 2 3 3 3
1 2 2 2 2 1 1 2 2 2 2 2 1 2 4 3 3 3 3 3 3 2 2 2 2 3 2 2 2 2 3 3 2 2 2 2 2 2 2 2 2 3 3
1 2 2 2 1 1 1 1 2 2 2 1 1 1 2 2 2 2 2 2 2 2 2 2 2 3 3 3 3 3 3 3 2 2 2 3 2 2 2 2 3 3 3
1 2 2 1 1 1 1 2 2 1 1 1 1 2 2 2 2 2 2 2 2 2 2 2 3 3 4 3 3 3 3 3 3 3 3 3 3 2 2 2 2 3 3
2 2 1 1 1 1 1 1 1 1 1 1 1 1 1 1 1 2 1 1 2 1 2 2 2 3 3 3 3 3 3 3 4 3 3 3 3 2 2 3 2 2 3
2 2 1 1 2 1 1 2 1 1 1 1 1 1 1 1 1 1 1 1 2 2 2 2 3 3 4 3 3 3 3 4 4 5 3 2 2 2 2 2 3 3 3
Wind_Direction
153 155 157 156 150 143 130 131 145 163 156 158 152 147 115 106 102 93 23 343 355 356 356 352 338 346 4 351 4 2 356 11 225 299 319 346 16 24 34 76 130 124 126
165 160 161 154 151 153 141 144 147 168 180 158 151 156 150 120 121 140 255 21 5 349 337 340 332 348 356 330 355 344 328 333 105 299 313 343 335 318 57 33 34 137 170
173 158 152 157 154 148 147 160 167 171 182 177 164 171 174 176 140 87 80 18 342 340 341 339 338 352 334 331 317 286 300 334 4 298 299 326 335 344 356 323 295 269 243
178 165 156 164 151 148 154 164 180 173 181 199 175 182 180 180 158 75 349 327 341 350 355 349 345 343 324 318 313 305 308 312 314 290 288 299 308 321 348 303 299 302 305
176 171 167 161 146 148 156 176 186 187 204 204 182 177 169 188 156 17 317 328 315 313 314 293 293 311 328 323 321 316 330 298 286 285 276 298 304 326 307 300 303 296 299
174 180 168 163 157 163 171 173 176 193 212 216 207 189 183 211 318 345 339 297 271 262 280 277 266 303 353 349 335 338 317 266 263 264 272 277 284 280 296 293 290 322 299
188 179 181 169 160 168 181 179 184 196 203 230 224 180 166 178 189 292 320 311 286 260 263 281 305 352 16 349 335 339 345 337 292 246 237 254 262 272 279 284 278 270 275
199 189 182 167 170 177 183 188 196 199 195 208 223 208 181 201 215 255 305 293 281 269 267 268 251 190 328 333 317 325 322 334 325 313 255 260 260 256 244 256 257 268 295
205 209 201 179 183 187 188 193 200 200 204 203 212 205 189 202 216 234 292 274 273 272 282 308 346 110 313 325 309 282 289 285 305 294 290 278 271 279 292 304 299 296 290
226 223 209 195 199 199 191 192 201 203 207 205 210 198 188 188 207 236 274 247 262 269 265 288 334 342 325 321 298 265 265 270 284 300 298 293 277 267 273 251 245 232 270
246 220 206 206 212 204 186 190 194 203 209 212 211 198 188 186 192 210 272 227 258 274 266 261 255 285 302 304 304 267 269 290 284 281 285 284 271 256 254 262 250 222 226
228 216 213 207 220 210 188 193 194 201 213 219 211 207 203 190 173 211 253 274 302 277 274 274 255 276 288 299 298 294 292 301 271 269 281 287 280 266 260 264 271 266 251
206 213 212 202 199 196 194 191 187 199 211 213 206 212 217 198 195 211 245 272 296 296 281 292 290 291 295 288 291 296 290 269 260 262 262 264 266 263 268 271 279 292 294
218 222 205 190 183 176 186 189 186 202 206 208 207 214 221 209 189 201 228 258 284 303 309 279 278 270 284 286 301 289 266 254 255 253 266 272 284 292 281 269 264 264 282
238 226 201 187 188 188 184 214 204 208 201 205 212 209 204 216 230 219 221 234 237 247 277 284 252 265 269 272 263 259 271 276 272 269 268 285 288 277 272 265 255 259 261
255 216 194 189 194 185 184 204 303 223 212 203 200 197 211 213 214 184 214 253 253 229 179 211 224 228 234 245 261 266 270 273 268 263 269 265 262 259 270 279 263 251 255
299 256 201 202 203 202 208 205 213 294 252 217 202 187 185 191 192 192 216 245 248 181 184 227 232 230 234 241 250 258 264 264 260 256 260 262 263 263 268 269 262 260 262
315 299 254 217 213 212 214 215 212 211 215 233 219 200 194 204 215 214 208 180 212 201 220 241 243 246 245 244 247 252 264 272 272 266 267 267 267 268 273 265 260 261 264
314 298 273 237 227 225 221 218 216 218 214 208 189 192 202 216 233 231 202 199 207 220 232 246 245 242 246 247 249 247 251 263 266 265 263 261 257 265 273 265 265 278 275
300 304 306 276 243 234 228 222 216 218 217 209 203 187 170 175 215 225 223 237 230 231 235 241 245 244 240 240 242 242 248 257 255 252 262 266 261 258 264 269 267 271 268
291 288 291 281 253 243 242 241 231 219 216 218 214 197 181 190 211 221 225 232 235 232 236 240 245 253 250 244 238 236 239 244 245 250 258 269 270 265 265 268 271 271 274
301 291 274 268 266 268 265 257 243 231 228 225 216 197 190 199 211 221 228 232 237 232 227 232 241 241 244 241 236 239 242 241 238 246 252 262 266 263 261 262 265 269 272
273 280 282 282 282 273 266 265 259 252 245 226 202 185 198 225 221 224 238 239 231 244 251 255 255 256 262 253 248 240 234 238 234 235 242 250 255 255 256 260 263 271 272
254 270 275 281 285 255 243 248 251 252 243 225 228 219 216 235 242 244 243 240 239 244 254 259 261 260 266 268 262 253 246 244 246 239 232 239 245 248 244 257 261 258 263
244 255 267 279 275 268 263 255 257 265 263 248 252 259 247 249 260 265 259 267 276 275 280 277 273 276 273 272 275 272 276 284 278 269 246 233 237 243 243 248 260 263 265
236 238 243 258 263 260 262 255 248 255 256 261 258 258 263 268 274 282 282 286 291 290 289 291 287 291 289 274 264 266 277 292 296 285 266 226 220 230 235 243 253 260 261
Height
1512 1513 1514 1515 1515 1516 1517 1517 1518 1519 1519 1520 1520 1521 1521 1521 1521 1521 1521 1521 1521 1521 1521 1521 1520 1520 1519 1519 1518 1518 1518 1518 1518 1518 1518 1518 1518 1517 1516 1516 1515 1514 1514
1510 1511 1512 1513 1513 1514 1515 1515 1516 1517 1517 1518 1519 1519 1519 1519 1519 1520 1520 1520 1520 1520 1519 1519 1518 1518 1517 1517 1516 1516 1516 1516 1516 1515 1516 1516 1515 1515 1514 1514 1513 1513 1512
1509 1509 1510 1510 1511 1512 1512 1513 1514 1515 1515 1516 1517 1517 1517 1518 1518 1518 1518 1518 1518 1518 1518 1517 1517 1516 1515 1515 1514 1514 1514 1514 1514 1514 1513 1514 1513 1513 1512 1512 1511 1511 1511
1506 1507 1507 1508 1508 1509 1510 1511 1512 1513 1513 1514 1514 1515 1515 1516 1516 1516 1516 1516 1516 1516 1516 1515 1515 1514 1514 1513 1512 1512 1512 1512 1512 1511 1511 1511 1511 1511 1510 1510 1509 1509 1509
1504 1505 1505 1506 1506 1507 1508 1508 1509 1510 1511 1512 1512 1512 1513 1514 1514 1514 1514 1514 1514 1514 1513 1513 1513 1512 1512 1511 1510 1510 1510 1509 1509 1509 1509 1509 1508 1508 1507 1508 1507 1507 1507
1502 1502 1503 1503 1503 1504 1505 1506 1507 1507 1508 1509 1510 1510 1511 1511 1512 1512 1512 1512 1511 1511 1511 1511 1510 1510 1509 1508 1508 1507 1507 1507 1506 1506 1506 1506 1505 1506 1505 1505 1505 1504 1504
1499 1500 1500 1500 1501 1501 1503 1503 1504 1505 1506 1506 1507 1508 1508 1508 1509 1509 1509 1509 1509 1509 1508 1508 1508 1507 1506 1505 1505 1505 1504 1504 1504 1504 1503 1503 1503 1503 1503 1503 1502 1502 1502
1497 1497 1497 1497 1498 1499 1499 1500 1501 1502 1503 1503 1504 1505 1505 1505 1506 1506 1506 1506 1506 1506 1506 1505 1505 1504 1503 1503 1502 1502 1501 1501 1501 1501 1501 1501 1501 1501 1501 1500 1500 1500 1500
1493 1493 1494 1494 1495 1495 1496 1497 1498 1499 1500 1500 1501 1502 1502 1502 1503 1503 1503 1503 1503 1503 1502 1502 1502 1501 1500 1500 1499 1498 1498 1498 1498 1498 1498 1498 1498 1498 1498 1497 1497 1496 1496
1489 1490 1490 1491 1492 1492 1493 1494 1495 1496 1496 1497 1498 1499 1499 1499 1500 1500 1500 1500 1499 1499 1499 1498 1498 1498 1497 1497 1496 1495 1495 1494 1495 1495 1495 1494 1494 1494 1494 1494 1494 1494 1493
1486 1486 1487 1488 1489 1490 1490 1491 1491 1492 1493 1494 1495 1495 1495 1496 1496 1496 1497 1496 1496 1495 1495 1494 1494 1494 1493 1493 1493 1492 1492 1492 1492 1492 1492 1491 1491 1491 1491 1491 1491 1491 1491
1482 1483 1484 1484 1485 1486 1487 1487 1488 1489 1489 1490 1490 1491 1491 1492 1492 1492 1493 1493 1493 1492 1491 1491 1491 1490 1490 1489 1489 1489 1489 1489 1488 1488 1488 1488 1487 1487 1487 1487 1487 1487 1488
1479 1479 1480 1481 1481 1482 1483 1483 1484 1485 1486 1486 1486 1486 1487 1488 1488 1488 1489 1489 1489 1489 1488 1488 1487 1487 1486 1486 1485 1486 1485 1485 1485 1485 1484 1484 1484 1484 1485 1484 1484 1484 1484
1476 1476 1477 1477 1478 1479 1479 1480 1480 1481 1481 1482 1482 1483 1483 1483 1483 1484 1484 1485 1485 1485 1484 1484 1484 1483 1483 1482 1482 1482 1482 1482 1482 1481 1481 1481 1481 1481 1481 1481 1480 1480 1480
1473 1473 1474 1474 1475 1475 1476 1477 1477 1478 1478 1479 1478 1479 1479 1479 1480 1480 1481 1481 1481 1481 1480 1480 1480 1480 1479 1479 1478 1478 1479 1478 1478 1478 1478 1478 1477 1477 1477 1477 1477 1477 1476
1470 1470 1470 1471 1471 1472 1472 1473 1474 1474 1475 1476 1476 1476 1476 1477 1477 1477 1477 1478 1478 1478 1477 1476 1476 1476 1476 1476 1475 1474 1475 1475 1475 1475 1475 1474 1474 1474 1474 1474 1474 1473 1473
1467 1467 1467 1468 1468 1468 1469 1469 1470 1471 1472 1472 1472 1473 1473 1473 1473 1474 1474 1474 1474 1474 1473 1473 1473 1473 1473 1472 1472 1472 1471 1471 1472 1471 1471 1470 1470 1470 1470 1470 1469 1469 1469
1464 1464 1464 1464 1465 1465 1465 1466 1467 1467 1467 1468 1469 1469 1470 1470 1470 1470 1471 1471 1470 1470 1470 1470 1469 1469 1469 1469 1469 1468 1468 1468 1468 1468 1467 1467 1466 1466 1466 1465 1465 1465 1464
1462 1461 1462 1462 1462 1462 1463 1463 1464 1464 1465 1465 1465 1466 1466 1467 1467 1467 1467 1467 1466 1466 1466 1466 1466 1466 1466 1466 1466 1465 1465 1465 1465 1465 1464 1463 1463 1463 1462 1462 1461 1461 1460
1459 1459 1459 1459 1459 1459 1460 1460 1461 1461 1462 1462 1462 1462 1463 1463 1463 1464 1464 1463 1463 1463 1463 1463 1463 1463 1463 1463 1463 1462 1462 1461 1461 1461 1460 1460 1460 1459 1458 1458 1457 1457 1456
1457 1456 1456 1456 1456 1456 1457 1457 1457 1458 1458 1459 1459 1459 1460 1460 1460 1460 1460 1460 1460 1460 1460 1459 1459 1459 1459 1459 1459 1458 1458 1458 1458 1457 1457 1456 1456 1455 1455 1454 1453 1453 1452
1454 1453 1453 1453 1453 1453 1454 1454 1454 1455 1455 1456 1456 1456 1456 1456 1457 1457 1457 1457 1457 1457 1456 1456 1456 1456 1455 1455 1455 1455 1454 1454 1454 1453 1453 1453 1452 1452 1451 1450 1450 1449 1448
1451 1451 1450 1450 1451 1451 1451 1451 1451 1452 1452 1452 1452 1453 1453 1453 1453 1453 1454 1454 1453 1453 1453 1452 1452 1452 1451 1451 1451 1451 1450 1450 1450 1450 1449 1449 1448 1448 1447 1447 1446 1445 1444
1449 1448 1448 1448 1448 1448 1448 1448 1448 1448 1448 1449 1449 1449 1449 1449 1450 1450 1450 1450 1450 1449 1449 1448 1448 1448 1448 1447 1447 1447 1447 1447 1446 1446 1446 1445 1445 1444 1444 1443 1443 1442 1441
1446 1446 1446 1445 1445 1445 1445 1445 1445 1445 1445 1445 1446 1446 1446 1446 1446 1447 1447 1447 1446 1446 1445 1445 1444 1444 1443 1443 1443 1443 1443 1443 1442 1442 1441 1441 1440 1440 1440 1439 1439 1438 1438
1444 1444 1443 1443 1443 1443 1443 1443 1443 1443 1443 1443 1443 1443 1443 1443 1443 1443 1443 1443 1443 1442 1442 1441 1441 1440 1439 1439 1439 1439 1439 1438 1438 1438 1437 1437 1437 1436 1436 1436 1435 1435 1434